Year,Month,Day,Hour,Minute,Value (Times are PST for temperature in C)
2014,08,09,00,00,15.40
2014,08,09,00,01,15.50
2014,08,09,00,02,15.40
2014,08,09,00,03,15.40
2014,08,09,00,04,15.40
2014,08,09,00,05,15.40
2014,08,09,00,06,15.40
2014,08,09,00,07,15.40
2014,08,09,00,08,15.40
2014,08,09,00,09,15.40
2014,08,09,00,10,15.40
2014,08,09,00,11,15.40
2014,08,09,00,12,15.40
2014,08,09,00,13,15.40
2014,08,09,00,14,15.40
2014,08,09,00,15,15.40
2014,08,09,00,16,15.40
2014,08,09,00,17,15.40
2014,08,09,00,18,15.40
2014,08,09,00,19,15.30
2014,08,09,00,20,15.30
2014,08,09,00,21,15.30
2014,08,09,00,22,15.30
2014,08,09,00,23,15.30
2014,08,09,00,24,15.30
2014,08,09,00,25,15.30
2014,08,09,00,26,15.30
2014,08,09,00,27,15.30
2014,08,09,00,28,15.30
2014,08,09,00,29,15.30
2014,08,09,00,30,15.30
2014,08,09,00,31,15.30
2014,08,09,00,32,15.30
2014,08,09,00,33,15.30
2014,08,09,00,34,15.30
2014,08,09,00,35,15.40
2014,08,09,00,36,15.40
2014,08,09,00,37,15.40
2014,08,09,00,38,15.40
2014,08,09,00,39,15.40
2014,08,09,00,40,15.40
2014,08,09,00,41,15.40
2014,08,09,00,42,15.40
2014,08,09,00,43,15.40
2014,08,09,00,44,15.30
2014,08,09,00,45,15.30
2014,08,09,00,46,15.30
2014,08,09,00,47,15.30
2014,08,09,00,48,15.30
2014,08,09,00,49,15.30
2014,08,09,00,50,15.20
2014,08,09,00,51,15.20
2014,08,09,00,52,15.20
2014,08,09,00,53,15.20
2014,08,09,00,54,15.20
2014,08,09,00,55,15.20
2014,08,09,00,56,15.20
2014,08,09,00,57,15.20
2014,08,09,00,58,15.20
2014,08,09,00,59,15.20
2014,08,09,01,00,15.20
2014,08,09,01,01,15.20
2014,08,09,01,02,15.20
2014,08,09,01,03,15.20
2014,08,09,01,04,15.20
2014,08,09,01,05,15.20
2014,08,09,01,06,15.20
2014,08,09,01,07,15.10
2014,08,09,01,08,15.10
2014,08,09,01,09,15.10
2014,08,09,01,10,15.10
2014,08,09,01,11,15.10
2014,08,09,01,12,15.10
2014,08,09,01,13,15.10
2014,08,09,01,14,15.10
2014,08,09,01,15,15.10
2014,08,09,01,16,15.00
2014,08,09,01,17,15.00
2014,08,09,01,18,15.00
2014,08,09,01,19,15.00
2014,08,09,01,20,15.00
2014,08,09,01,21,15.10
2014,08,09,01,22,15.10
2014,08,09,01,23,15.10
2014,08,09,01,24,15.10
2014,08,09,01,25,15.10
2014,08,09,01,26,15.00
2014,08,09,01,27,15.00
2014,08,09,01,28,15.00
2014,08,09,01,29,15.00
2014,08,09,01,30,15.00
2014,08,09,01,31,14.90
2014,08,09,01,32,14.90
2014,08,09,01,33,14.90
2014,08,09,01,34,14.80
2014,08,09,01,35,14.80
2014,08,09,01,36,14.80
2014,08,09,01,37,14.80
2014,08,09,01,38,14.80
2014,08,09,01,39,14.80
2014,08,09,01,40,14.80
2014,08,09,01,41,14.80
2014,08,09,01,42,14.80
2014,08,09,01,43,14.80
2014,08,09,01,44,14.80
2014,08,09,01,45,14.80
2014,08,09,01,46,14.80
2014,08,09,01,47,14.80
2014,08,09,01,48,14.70
2014,08,09,01,49,14.70
2014,08,09,01,50,14.70
2014,08,09,01,51,14.70
2014,08,09,01,52,14.60
2014,08,09,01,53,14.60
2014,08,09,01,54,14.60
2014,08,09,01,55,14.60
2014,08,09,01,56,14.60
2014,08,09,01,57,14.60
2014,08,09,01,58,14.60
2014,08,09,01,59,14.60
2014,08,09,02,00,14.60
2014,08,09,02,01,14.50
2014,08,09,02,02,14.50
2014,08,09,02,03,14.50
2014,08,09,02,04,14.50
2014,08,09,02,05,14.50
2014,08,09,02,06,14.50
2014,08,09,02,07,14.50
2014,08,09,02,08,14.50
2014,08,09,02,09,14.50
2014,08,09,02,10,14.50
2014,08,09,02,11,14.50
2014,08,09,02,12,14.50
2014,08,09,02,13,14.50
2014,08,09,02,14,14.50
2014,08,09,02,15,14.50
2014,08,09,02,16,14.50
2014,08,09,02,17,14.50
2014,08,09,02,18,14.50
2014,08,09,02,19,14.50
2014,08,09,02,20,14.50
2014,08,09,02,21,14.50
2014,08,09,02,22,14.50
2014,08,09,02,23,14.50
2014,08,09,02,24,14.50
2014,08,09,02,25,14.50
2014,08,09,02,26,14.50
2014,08,09,02,27,14.50
2014,08,09,02,28,14.50
2014,08,09,02,29,14.50
2014,08,09,02,30,14.50
2014,08,09,02,31,14.50
2014,08,09,02,32,14.50
2014,08,09,02,33,14.40
2014,08,09,02,34,14.40
2014,08,09,02,35,14.40
2014,08,09,02,36,14.40
2014,08,09,02,37,14.30
2014,08,09,02,38,14.30
2014,08,09,02,39,14.20
2014,08,09,02,40,14.20
2014,08,09,02,41,14.20
2014,08,09,02,42,14.20
2014,08,09,02,43,14.20
2014,08,09,02,44,14.10
2014,08,09,02,45,14.10
2014,08,09,02,46,14.10
2014,08,09,02,47,14.00
2014,08,09,02,48,14.00
2014,08,09,02,49,14.00
2014,08,09,02,50,13.90
2014,08,09,02,51,13.90
2014,08,09,02,52,13.90
2014,08,09,02,53,13.80
2014,08,09,02,54,13.80
2014,08,09,02,55,13.80
2014,08,09,02,56,13.70
2014,08,09,02,57,13.70
2014,08,09,02,58,13.70
2014,08,09,02,59,13.60
2014,08,09,03,00,13.60
2014,08,09,03,01,13.50
2014,08,09,03,02,13.50
2014,08,09,03,03,13.40
2014,08,09,03,04,13.40
2014,08,09,03,05,13.40
2014,08,09,03,06,13.40
2014,08,09,03,07,13.40
2014,08,09,03,08,13.30
2014,08,09,03,09,13.30
2014,08,09,03,10,13.30
2014,08,09,03,11,13.30
2014,08,09,03,12,13.30
2014,08,09,03,13,13.30
2014,08,09,03,14,13.30
2014,08,09,03,15,13.20
2014,08,09,03,16,13.20
2014,08,09,03,17,13.20
2014,08,09,03,18,13.20
2014,08,09,03,19,13.20
2014,08,09,03,20,13.10
2014,08,09,03,21,13.10
2014,08,09,03,22,13.10
2014,08,09,03,23,13.10
2014,08,09,03,24,13.10
2014,08,09,03,25,13.00
2014,08,09,03,26,13.00
2014,08,09,03,27,13.00
2014,08,09,03,28,13.00
2014,08,09,03,29,12.90
2014,08,09,03,30,12.90
2014,08,09,03,31,12.90
2014,08,09,03,32,12.80
2014,08,09,03,33,12.80
2014,08,09,03,34,12.80
2014,08,09,03,35,12.80
2014,08,09,03,36,12.80
2014,08,09,03,37,12.80
2014,08,09,03,38,12.70
2014,08,09,03,39,12.70
2014,08,09,03,40,12.70
2014,08,09,03,41,12.70
2014,08,09,03,42,12.70
2014,08,09,03,43,12.60
2014,08,09,03,44,12.60
2014,08,09,03,45,12.60
2014,08,09,03,46,12.60
2014,08,09,03,47,12.60
2014,08,09,03,48,12.60
2014,08,09,03,49,12.60
2014,08,09,03,50,12.60
2014,08,09,03,51,12.60
2014,08,09,03,52,12.60
2014,08,09,03,53,12.60
2014,08,09,03,54,12.50
2014,08,09,03,55,12.50
2014,08,09,03,56,12.50
2014,08,09,03,57,12.50
2014,08,09,03,58,12.50
2014,08,09,03,59,12.50
2014,08,09,04,00,12.50
2014,08,09,04,01,12.50
2014,08,09,04,02,12.50
2014,08,09,04,03,12.60
2014,08,09,04,04,12.60
2014,08,09,04,05,12.60
2014,08,09,04,06,12.60
2014,08,09,04,07,12.60
2014,08,09,04,08,12.50
2014,08,09,04,09,12.50
2014,08,09,04,10,12.50
2014,08,09,04,11,12.50
2014,08,09,04,12,12.50
2014,08,09,04,13,12.50
2014,08,09,04,14,12.50
2014,08,09,04,15,12.50
2014,08,09,04,16,12.50
2014,08,09,04,17,12.50
2014,08,09,04,18,12.60
2014,08,09,04,19,12.60
2014,08,09,04,20,12.60
2014,08,09,04,21,12.60
2014,08,09,04,22,12.60
2014,08,09,04,23,12.60
2014,08,09,04,24,12.50
2014,08,09,04,25,12.50
2014,08,09,04,26,12.50
2014,08,09,04,27,12.50
2014,08,09,04,28,12.50
2014,08,09,04,29,12.50
2014,08,09,04,30,12.50
2014,08,09,04,31,12.50
2014,08,09,04,32,12.60
2014,08,09,04,33,12.60
2014,08,09,04,34,12.60
2014,08,09,04,35,12.60
2014,08,09,04,36,12.60
2014,08,09,04,37,12.60
2014,08,09,04,38,12.50
2014,08,09,04,39,12.50
2014,08,09,04,40,12.50
2014,08,09,04,41,12.50
2014,08,09,04,42,12.50
2014,08,09,04,43,12.50
2014,08,09,04,44,12.40
2014,08,09,04,45,12.40
2014,08,09,04,46,12.40
2014,08,09,04,47,12.40
2014,08,09,04,48,12.40
2014,08,09,04,49,12.30
2014,08,09,04,50,12.30
2014,08,09,04,51,12.30
2014,08,09,04,52,12.30
2014,08,09,04,53,12.30
2014,08,09,04,54,12.30
2014,08,09,04,55,12.30
2014,08,09,04,56,12.30
2014,08,09,04,57,12.30
2014,08,09,04,58,12.20
2014,08,09,04,59,12.20
2014,08,09,05,00,12.20
2014,08,09,05,01,12.20
2014,08,09,05,02,12.20
2014,08,09,05,03,12.20
2014,08,09,05,04,12.10
2014,08,09,05,05,12.10
2014,08,09,05,06,12.10
2014,08,09,05,07,12.10
2014,08,09,05,08,12.00
2014,08,09,05,09,12.00
2014,08,09,05,10,12.00
2014,08,09,05,11,12.00
2014,08,09,05,12,12.00
2014,08,09,05,13,12.10
2014,08,09,05,14,12.00
2014,08,09,05,15,12.00
2014,08,09,05,16,12.00
2014,08,09,05,17,12.00
2014,08,09,05,18,12.00
2014,08,09,05,19,12.00
2014,08,09,05,20,12.00
2014,08,09,05,21,12.00
2014,08,09,05,22,12.00
2014,08,09,05,23,12.00
2014,08,09,05,24,12.00
2014,08,09,05,25,11.90
2014,08,09,05,26,11.90
2014,08,09,05,27,11.90
2014,08,09,05,28,11.90
2014,08,09,05,29,11.90
2014,08,09,05,30,11.90
2014,08,09,05,31,11.90
2014,08,09,05,32,11.90
2014,08,09,05,33,11.90
2014,08,09,05,34,11.90
2014,08,09,05,35,11.80
2014,08,09,05,36,11.80
2014,08,09,05,37,11.80
2014,08,09,05,38,11.80
2014,08,09,05,39,11.80
2014,08,09,05,40,11.80
2014,08,09,05,41,11.80
2014,08,09,05,42,11.80
2014,08,09,05,43,11.80
2014,08,09,05,44,11.80
2014,08,09,05,45,11.80
2014,08,09,05,46,11.80
2014,08,09,05,47,11.70
2014,08,09,05,48,11.70
2014,08,09,05,49,11.70
2014,08,09,05,50,11.80
2014,08,09,05,51,11.80
2014,08,09,05,52,11.80
2014,08,09,05,53,11.80
2014,08,09,05,54,11.80
2014,08,09,05,55,11.80
2014,08,09,05,56,11.70
2014,08,09,05,57,11.70
2014,08,09,05,58,11.70
2014,08,09,05,59,11.70
2014,08,09,06,00,11.70
2014,08,09,06,01,11.70
2014,08,09,06,02,11.70
2014,08,09,06,03,11.70
2014,08,09,06,04,11.70
2014,08,09,06,05,11.70
2014,08,09,06,06,11.70
2014,08,09,06,07,11.70
2014,08,09,06,08,11.70
2014,08,09,06,09,11.70
2014,08,09,06,10,11.70
2014,08,09,06,11,11.70
2014,08,09,06,12,11.60
2014,08,09,06,13,11.60
2014,08,09,06,14,11.60
2014,08,09,06,15,11.60
2014,08,09,06,16,11.60
2014,08,09,06,17,11.60
2014,08,09,06,18,11.60
2014,08,09,06,19,11.60
2014,08,09,06,20,11.60
2014,08,09,06,21,11.70
2014,08,09,06,22,11.70
2014,08,09,06,23,11.70
2014,08,09,06,24,11.80
2014,08,09,06,25,11.80
2014,08,09,06,26,11.80
2014,08,09,06,27,11.80
2014,08,09,06,28,11.80
2014,08,09,06,29,11.80
2014,08,09,06,30,11.80
2014,08,09,06,31,11.80
2014,08,09,06,32,11.80
2014,08,09,06,33,11.90
2014,08,09,06,34,12.00
2014,08,09,06,35,12.00
2014,08,09,06,36,12.10
2014,08,09,06,37,12.10
2014,08,09,06,38,12.10
2014,08,09,06,39,12.20
2014,08,09,06,40,12.20
2014,08,09,06,41,12.20
2014,08,09,06,42,12.20
2014,08,09,06,43,12.20
2014,08,09,06,44,12.30
2014,08,09,06,45,12.30
2014,08,09,06,46,12.30
2014,08,09,06,47,12.30
2014,08,09,06,48,12.30
2014,08,09,06,49,12.30
2014,08,09,06,50,12.30
2014,08,09,06,51,12.40
2014,08,09,06,52,12.40
2014,08,09,06,53,12.50
2014,08,09,06,54,12.50
2014,08,09,06,55,12.60
2014,08,09,06,56,12.60
2014,08,09,06,57,12.70
2014,08,09,06,58,12.70
2014,08,09,06,59,12.80
2014,08,09,07,00,12.80
2014,08,09,07,01,12.80
2014,08,09,07,02,12.80
2014,08,09,07,03,12.70
2014,08,09,07,04,12.70
2014,08,09,07,05,12.60
2014,08,09,07,06,12.60
2014,08,09,07,07,12.50
2014,08,09,07,08,12.50
2014,08,09,07,09,12.50
2014,08,09,07,10,12.40
2014,08,09,07,11,12.40
2014,08,09,07,12,12.40
2014,08,09,07,13,12.40
2014,08,09,07,14,12.40
2014,08,09,07,15,12.30
2014,08,09,07,16,12.30
2014,08,09,07,17,12.40
2014,08,09,07,18,12.40
2014,08,09,07,19,12.40
2014,08,09,07,20,12.40
2014,08,09,07,21,12.40
2014,08,09,07,22,12.50
2014,08,09,07,23,12.50
2014,08,09,07,24,12.50
2014,08,09,07,25,12.60
2014,08,09,07,26,12.70
2014,08,09,07,27,12.70
2014,08,09,07,28,12.80
2014,08,09,07,29,12.90
2014,08,09,07,30,13.00
2014,08,09,07,31,13.10
2014,08,09,07,32,13.20
2014,08,09,07,33,13.30
2014,08,09,07,34,13.30
2014,08,09,07,35,13.40
2014,08,09,07,36,13.50
2014,08,09,07,37,13.60
2014,08,09,07,38,13.70
2014,08,09,07,39,13.80
2014,08,09,07,40,13.90
2014,08,09,07,41,14.00
2014,08,09,07,42,14.20
2014,08,09,07,43,14.30
2014,08,09,07,44,14.50
2014,08,09,07,45,14.60
2014,08,09,07,46,14.70
2014,08,09,07,47,14.80
2014,08,09,07,48,14.90
2014,08,09,07,49,15.00
2014,08,09,07,50,15.10
2014,08,09,07,51,15.20
2014,08,09,07,52,15.20
2014,08,09,07,53,15.30
2014,08,09,07,54,15.40
2014,08,09,07,55,15.50
2014,08,09,07,56,15.50
2014,08,09,07,57,15.60
2014,08,09,07,58,15.60
2014,08,09,07,59,15.70
2014,08,09,08,00,15.80
2014,08,09,08,01,15.90
2014,08,09,08,02,16.00
2014,08,09,08,03,16.10
2014,08,09,08,04,16.10
2014,08,09,08,05,16.20
2014,08,09,08,06,16.30
2014,08,09,08,07,16.40
2014,08,09,08,08,16.40
2014,08,09,08,09,16.60
2014,08,09,08,10,16.70
2014,08,09,08,11,16.70
2014,08,09,08,12,16.80
2014,08,09,08,13,16.80
2014,08,09,08,14,16.80
2014,08,09,08,15,16.90
2014,08,09,08,16,16.90
2014,08,09,08,17,16.80
2014,08,09,08,18,16.80
2014,08,09,08,19,16.90
2014,08,09,08,20,16.90
2014,08,09,08,21,16.90
2014,08,09,08,22,16.90
2014,08,09,08,23,17.00
2014,08,09,08,24,17.00
2014,08,09,08,25,17.00
2014,08,09,08,26,17.00
2014,08,09,08,27,17.00
2014,08,09,08,28,17.00
2014,08,09,08,29,17.10
2014,08,09,08,30,17.10
2014,08,09,08,31,17.10
2014,08,09,08,32,17.20
2014,08,09,08,33,17.20
2014,08,09,08,34,17.30
2014,08,09,08,35,17.30
2014,08,09,08,36,17.30
2014,08,09,08,37,17.40
2014,08,09,08,38,17.40
2014,08,09,08,39,17.50
2014,08,09,08,40,17.60
2014,08,09,08,41,17.60
2014,08,09,08,42,17.70
2014,08,09,08,43,17.80
2014,08,09,08,44,17.80
2014,08,09,08,45,17.90
2014,08,09,08,46,17.90
2014,08,09,08,47,17.90
2014,08,09,08,48,18.00
2014,08,09,08,49,18.10
2014,08,09,08,50,18.10
2014,08,09,08,51,18.10
2014,08,09,08,52,18.20
2014,08,09,08,53,18.20
2014,08,09,08,54,18.30
2014,08,09,08,55,18.40
2014,08,09,08,56,18.50
2014,08,09,08,57,18.60
2014,08,09,08,58,18.70
2014,08,09,08,59,18.80
2014,08,09,09,00,18.90
2014,08,09,09,01,18.90
2014,08,09,09,02,19.00
2014,08,09,09,03,19.10
2014,08,09,09,04,19.10
2014,08,09,09,05,19.10
2014,08,09,09,06,19.10
2014,08,09,09,07,19.20
2014,08,09,09,08,19.20
2014,08,09,09,09,19.30
2014,08,09,09,10,19.30
2014,08,09,09,11,19.40
2014,08,09,09,12,19.40
2014,08,09,09,13,19.40
2014,08,09,09,14,19.40
2014,08,09,09,15,19.40
2014,08,09,09,16,19.50
2014,08,09,09,17,19.60
2014,08,09,09,18,19.70
2014,08,09,09,19,19.80
2014,08,09,09,20,19.90
2014,08,09,09,21,19.90
2014,08,09,09,22,19.90
2014,08,09,09,23,20.00
2014,08,09,09,24,20.10
2014,08,09,09,25,20.10
2014,08,09,09,26,20.20
2014,08,09,09,27,20.20
2014,08,09,09,28,20.20
2014,08,09,09,29,20.20
2014,08,09,09,30,20.20
2014,08,09,09,31,20.20
2014,08,09,09,32,20.30
2014,08,09,09,33,20.40
2014,08,09,09,34,20.50
2014,08,09,09,35,20.60
2014,08,09,09,36,20.60
2014,08,09,09,37,20.60
2014,08,09,09,38,20.60
2014,08,09,09,39,20.60
2014,08,09,09,40,20.70
2014,08,09,09,41,20.80
2014,08,09,09,42,20.80
2014,08,09,09,43,20.90
2014,08,09,09,44,21.00
2014,08,09,09,45,21.10
2014,08,09,09,46,21.10
2014,08,09,09,47,21.20
2014,08,09,09,48,21.20
2014,08,09,09,49,21.20
2014,08,09,09,50,21.20
2014,08,09,09,51,21.30
2014,08,09,09,52,21.30
2014,08,09,09,53,21.30
2014,08,09,09,54,21.30
2014,08,09,09,55,21.30
2014,08,09,09,56,21.30
2014,08,09,09,57,21.30
2014,08,09,09,58,21.30
2014,08,09,09,59,21.30
2014,08,09,10,00,21.30
2014,08,09,10,01,21.30
2014,08,09,10,02,21.30
2014,08,09,10,03,21.30
2014,08,09,10,04,21.30
2014,08,09,10,05,21.30
2014,08,09,10,06,21.30
2014,08,09,10,07,21.30
2014,08,09,10,08,21.30
2014,08,09,10,09,21.30
2014,08,09,10,10,21.30
2014,08,09,10,11,21.30
2014,08,09,10,12,21.30
2014,08,09,10,13,21.30
2014,08,09,10,14,21.20
2014,08,09,10,15,21.20
2014,08,09,10,16,21.20
2014,08,09,10,17,21.10
2014,08,09,10,18,21.10
2014,08,09,10,19,21.10
2014,08,09,10,20,21.10
2014,08,09,10,21,21.00
2014,08,09,10,22,21.00
2014,08,09,10,23,21.00
2014,08,09,10,24,21.10
2014,08,09,10,25,21.20
2014,08,09,10,26,21.30
2014,08,09,10,27,21.40
2014,08,09,10,28,21.40
2014,08,09,10,29,21.50
2014,08,09,10,30,21.50
2014,08,09,10,31,21.40
2014,08,09,10,32,21.40
2014,08,09,10,33,21.30
2014,08,09,10,34,21.30
2014,08,09,10,35,21.30
2014,08,09,10,36,21.30
2014,08,09,10,37,21.30
2014,08,09,10,38,21.40
2014,08,09,10,39,21.50
2014,08,09,10,40,21.60
2014,08,09,10,41,21.60
2014,08,09,10,42,21.60
2014,08,09,10,43,21.60
2014,08,09,10,44,21.70
2014,08,09,10,45,21.80
2014,08,09,10,46,21.80
2014,08,09,10,47,21.80
2014,08,09,10,48,21.80
2014,08,09,10,49,21.80
2014,08,09,10,50,21.70
2014,08,09,10,51,21.60
2014,08,09,10,52,21.60
2014,08,09,10,53,21.40
2014,08,09,10,54,21.30
2014,08,09,10,55,21.30
2014,08,09,10,56,21.30
2014,08,09,10,57,21.20
2014,08,09,10,58,21.30
2014,08,09,10,59,21.30
2014,08,09,11,00,21.30
2014,08,09,11,01,21.30
2014,08,09,11,02,21.30
2014,08,09,11,03,21.40
2014,08,09,11,04,21.40
2014,08,09,11,05,21.50
2014,08,09,11,06,21.60
2014,08,09,11,07,21.60
2014,08,09,11,08,21.60
2014,08,09,11,09,21.60
2014,08,09,11,10,21.60
2014,08,09,11,11,21.50
2014,08,09,11,12,21.40
2014,08,09,11,13,21.20
2014,08,09,11,14,21.10
2014,08,09,11,15,21.10
2014,08,09,11,16,21.00
2014,08,09,11,17,21.00
2014,08,09,11,18,21.10
2014,08,09,11,19,21.20
2014,08,09,11,20,21.40
2014,08,09,11,21,21.60
2014,08,09,11,22,21.80
2014,08,09,11,23,21.80
2014,08,09,11,24,21.80
2014,08,09,11,25,21.60
2014,08,09,11,26,21.50
2014,08,09,11,27,21.40
2014,08,09,11,28,21.50
2014,08,09,11,29,21.50
2014,08,09,11,30,21.40
2014,08,09,11,31,21.30
2014,08,09,11,32,21.30
2014,08,09,11,33,21.30
2014,08,09,11,34,21.30
2014,08,09,11,35,21.20
2014,08,09,11,36,21.00
2014,08,09,11,37,20.90
2014,08,09,11,38,20.80
2014,08,09,11,39,20.80
2014,08,09,11,40,20.80
2014,08,09,11,41,20.80
2014,08,09,11,42,20.90
2014,08,09,11,43,21.00
2014,08,09,11,44,21.10
2014,08,09,11,45,21.30
2014,08,09,11,46,21.30
2014,08,09,11,47,21.30
2014,08,09,11,48,21.50
2014,08,09,11,49,21.60
2014,08,09,11,50,21.60
2014,08,09,11,51,21.60
2014,08,09,11,52,21.60
2014,08,09,11,53,21.60
2014,08,09,11,54,21.60
2014,08,09,11,55,21.50
2014,08,09,11,56,21.40
2014,08,09,11,57,21.30
2014,08,09,11,58,21.10
2014,08,09,11,59,21.10
2014,08,09,12,00,21.20
2014,08,09,12,01,21.20
2014,08,09,12,02,21.20
2014,08,09,12,03,21.20
2014,08,09,12,04,21.20
2014,08,09,12,05,21.20
2014,08,09,12,06,21.20
2014,08,09,12,07,21.20
2014,08,09,12,08,21.20
2014,08,09,12,09,21.20
2014,08,09,12,10,21.10
2014,08,09,12,11,21.10
2014,08,09,12,12,21.00
2014,08,09,12,13,21.10
2014,08,09,12,14,21.20
2014,08,09,12,15,21.20
2014,08,09,12,16,21.20
2014,08,09,12,17,21.20
2014,08,09,12,18,21.20
2014,08,09,12,19,21.20
2014,08,09,12,20,21.10
2014,08,09,12,21,21.00
2014,08,09,12,22,21.10
2014,08,09,12,23,21.20
2014,08,09,12,24,21.10
2014,08,09,12,25,21.10
2014,08,09,12,26,21.10
2014,08,09,12,27,21.20
2014,08,09,12,28,21.30
2014,08,09,12,29,21.40
2014,08,09,12,30,21.40
2014,08,09,12,31,21.30
2014,08,09,12,32,21.30
2014,08,09,12,33,21.30
2014,08,09,12,34,21.30
2014,08,09,12,35,21.30
2014,08,09,12,36,21.30
2014,08,09,12,37,21.40
2014,08,09,12,38,21.40
2014,08,09,12,39,21.60
2014,08,09,12,40,21.60
2014,08,09,12,41,21.40
2014,08,09,12,42,21.40
2014,08,09,12,43,21.40
2014,08,09,12,44,21.40
2014,08,09,12,45,21.40
2014,08,09,12,46,21.50
2014,08,09,12,47,21.60
2014,08,09,12,48,21.70
2014,08,09,12,49,21.80
2014,08,09,12,50,21.80
2014,08,09,12,51,21.80
2014,08,09,12,52,21.70
2014,08,09,12,53,21.60
2014,08,09,12,54,21.60
2014,08,09,12,55,21.60
2014,08,09,12,56,21.60
2014,08,09,12,57,21.70
2014,08,09,12,58,21.70
2014,08,09,12,59,21.60
2014,08,09,13,00,21.60
2014,08,09,13,01,21.70
2014,08,09,13,02,21.80
2014,08,09,13,03,21.90
2014,08,09,13,04,21.90
2014,08,09,13,05,22.00
2014,08,09,13,06,22.10
2014,08,09,13,07,22.20
2014,08,09,13,08,22.20
2014,08,09,13,09,22.10
2014,08,09,13,10,22.00
2014,08,09,13,11,21.80
2014,08,09,13,12,21.60
2014,08,09,13,13,21.60
2014,08,09,13,14,21.60
2014,08,09,13,15,21.60
2014,08,09,13,16,21.60
2014,08,09,13,17,21.60
2014,08,09,13,18,21.60
2014,08,09,13,19,21.60
2014,08,09,13,20,21.60
2014,08,09,13,21,21.60
2014,08,09,13,22,21.60
2014,08,09,13,23,21.70
2014,08,09,13,24,21.80
2014,08,09,13,25,21.70
2014,08,09,13,26,21.70
2014,08,09,13,27,21.70
2014,08,09,13,28,21.90
2014,08,09,13,29,21.90
2014,08,09,13,30,21.90
2014,08,09,13,31,21.90
2014,08,09,13,32,21.90
2014,08,09,13,33,22.00
2014,08,09,13,34,22.00
2014,08,09,13,35,22.00
2014,08,09,13,36,22.10
2014,08,09,13,37,22.10
2014,08,09,13,38,22.20
2014,08,09,13,39,22.20
2014,08,09,13,40,22.00
2014,08,09,13,41,22.10
2014,08,09,13,42,22.10
2014,08,09,13,43,21.90
2014,08,09,13,44,21.90
2014,08,09,13,45,21.80
2014,08,09,13,46,21.90
2014,08,09,13,47,22.00
2014,08,09,13,48,22.00
2014,08,09,13,49,22.00
2014,08,09,13,50,22.00
2014,08,09,13,51,22.30
2014,08,09,13,52,22.30
2014,08,09,13,53,22.20
2014,08,09,13,54,22.20
2014,08,09,13,55,22.20
2014,08,09,13,56,22.00
2014,08,09,13,57,22.00
2014,08,09,13,58,21.80
2014,08,09,13,59,21.70
2014,08,09,14,00,21.70
2014,08,09,14,01,21.90
2014,08,09,14,02,22.00
2014,08,09,14,03,22.10
2014,08,09,14,04,22.10
2014,08,09,14,05,22.00
2014,08,09,14,06,22.00
2014,08,09,14,07,22.10
2014,08,09,14,08,22.20
2014,08,09,14,09,22.20
2014,08,09,14,10,22.10
2014,08,09,14,11,22.00
2014,08,09,14,12,21.90
2014,08,09,14,13,21.70
2014,08,09,14,14,21.60
2014,08,09,14,15,21.60
2014,08,09,14,16,21.60
2014,08,09,14,17,21.60
2014,08,09,14,18,21.80
2014,08,09,14,19,21.80
2014,08,09,14,20,21.80
2014,08,09,14,21,21.70
2014,08,09,14,22,21.70
2014,08,09,14,23,21.70
2014,08,09,14,24,21.80
2014,08,09,14,25,21.80
2014,08,09,14,26,21.90
2014,08,09,14,27,22.00
2014,08,09,14,28,21.90
2014,08,09,14,29,21.80
2014,08,09,14,30,22.00
2014,08,09,14,31,22.20
2014,08,09,14,32,22.20
2014,08,09,14,33,22.10
2014,08,09,14,34,22.00
2014,08,09,14,35,22.10
2014,08,09,14,36,22.10
2014,08,09,14,37,22.10
2014,08,09,14,38,22.10
2014,08,09,14,39,22.30
2014,08,09,14,40,22.30
2014,08,09,14,41,22.40
2014,08,09,14,42,22.50
2014,08,09,14,43,22.50
2014,08,09,14,44,22.70
2014,08,09,14,45,22.60
2014,08,09,14,46,22.60
2014,08,09,14,47,22.60
2014,08,09,14,48,22.50
2014,08,09,14,49,22.50
2014,08,09,14,50,22.60
2014,08,09,14,51,22.80
2014,08,09,14,52,22.90
2014,08,09,14,53,23.10
2014,08,09,14,54,23.10
2014,08,09,14,55,23.10
2014,08,09,14,56,23.10
2014,08,09,14,57,23.10
2014,08,09,14,58,23.00
2014,08,09,14,59,22.90
2014,08,09,15,00,22.90
2014,08,09,15,01,22.90
2014,08,09,15,02,22.80
2014,08,09,15,03,22.80
2014,08,09,15,04,22.80
2014,08,09,15,05,22.60
2014,08,09,15,06,22.50
2014,08,09,15,07,22.40
2014,08,09,15,08,22.40
2014,08,09,15,09,22.40
2014,08,09,15,10,22.40
2014,08,09,15,11,22.50
2014,08,09,15,12,22.60
2014,08,09,15,13,22.60
2014,08,09,15,14,22.50
2014,08,09,15,15,22.60
2014,08,09,15,16,22.70
2014,08,09,15,17,22.70
2014,08,09,15,18,22.60
2014,08,09,15,19,22.50
2014,08,09,15,20,22.30
2014,08,09,15,21,22.30
2014,08,09,15,22,22.40
2014,08,09,15,23,22.60
2014,08,09,15,24,22.80
2014,08,09,15,25,22.90
2014,08,09,15,26,22.80
2014,08,09,15,27,22.70
2014,08,09,15,28,22.60
2014,08,09,15,29,22.50
2014,08,09,15,30,22.40
2014,08,09,15,31,22.30
2014,08,09,15,32,22.20
2014,08,09,15,33,22.10
2014,08,09,15,34,22.30
2014,08,09,15,35,22.40
2014,08,09,15,36,22.40
2014,08,09,15,37,22.40
2014,08,09,15,38,22.40
2014,08,09,15,39,22.40
2014,08,09,15,40,22.40
2014,08,09,15,41,22.40
2014,08,09,15,42,22.50
2014,08,09,15,43,22.60
2014,08,09,15,44,22.60
2014,08,09,15,45,22.60
2014,08,09,15,46,22.60
2014,08,09,15,47,22.70
2014,08,09,15,48,22.80
2014,08,09,15,49,22.90
2014,08,09,15,50,22.80
2014,08,09,15,51,22.80
2014,08,09,15,52,22.70
2014,08,09,15,53,22.70
2014,08,09,15,54,22.70
2014,08,09,15,55,22.90
2014,08,09,15,56,22.90
2014,08,09,15,57,23.10
2014,08,09,15,58,23.10
2014,08,09,15,59,23.30
2014,08,09,16,00,23.30
2014,08,09,16,01,23.30
2014,08,09,16,02,23.40
2014,08,09,16,03,23.30
2014,08,09,16,04,23.30
2014,08,09,16,05,23.30
2014,08,09,16,06,23.30
2014,08,09,16,07,23.30
2014,08,09,16,08,23.30
2014,08,09,16,09,23.30
2014,08,09,16,10,23.40
2014,08,09,16,11,23.40
2014,08,09,16,12,23.40
2014,08,09,16,13,23.40
2014,08,09,16,14,23.30
2014,08,09,16,15,23.30
2014,08,09,16,16,23.40
2014,08,09,16,17,23.40
2014,08,09,16,18,23.50
2014,08,09,16,19,23.60
2014,08,09,16,20,23.60
2014,08,09,16,21,23.50
2014,08,09,16,22,23.40
2014,08,09,16,23,23.40
2014,08,09,16,24,23.60
2014,08,09,16,25,23.60
2014,08,09,16,26,23.70
2014,08,09,16,27,23.80
2014,08,09,16,28,23.80
2014,08,09,16,29,23.90
2014,08,09,16,30,23.90
2014,08,09,16,31,23.90
2014,08,09,16,32,23.80
2014,08,09,16,33,23.80
2014,08,09,16,34,23.80
2014,08,09,16,35,23.90
2014,08,09,16,36,24.00
2014,08,09,16,37,24.10
2014,08,09,16,38,24.10
2014,08,09,16,39,23.90
2014,08,09,16,40,23.90
2014,08,09,16,41,23.80
2014,08,09,16,42,23.90
2014,08,09,16,43,23.90
2014,08,09,16,44,24.00
2014,08,09,16,45,24.20
2014,08,09,16,46,24.20
2014,08,09,16,47,24.10
2014,08,09,16,48,24.10
2014,08,09,16,49,24.10
2014,08,09,16,50,24.10
2014,08,09,16,51,24.10
2014,08,09,16,52,24.20
2014,08,09,16,53,24.20
2014,08,09,16,54,24.30
2014,08,09,16,55,24.30
2014,08,09,16,56,24.20
2014,08,09,16,57,24.20
2014,08,09,16,58,24.20
2014,08,09,16,59,24.20
2014,08,09,17,00,24.20
2014,08,09,17,01,24.10
2014,08,09,17,02,24.10
2014,08,09,17,03,24.10
2014,08,09,17,04,24.10
2014,08,09,17,05,24.10
2014,08,09,17,06,24.10
2014,08,09,17,07,24.10
2014,08,09,17,08,24.00
2014,08,09,17,09,23.90
2014,08,09,17,10,23.80
2014,08,09,17,11,23.80
2014,08,09,17,12,23.90
2014,08,09,17,13,24.00
2014,08,09,17,14,24.10
2014,08,09,17,15,24.10
2014,08,09,17,16,24.10
2014,08,09,17,17,23.90
2014,08,09,17,18,23.90
2014,08,09,17,19,24.00